Torna al catalogo

STARLINK-4481

AttivoComunicazioniVLEO
NORAD 53418·PAYLOAD·🇺🇸 United States

Lanciato Aug 10, 2022 da Cape Canaveral Space Force Station

Loading…

Prossimi Passaggi (prossime 24 ore)

TLE

AggiornatoSource: CelesTrak SupGP

Epoca: Sep 14, 2026, 20:55 UTC

1 53418C 22097AG  26257.87201389 -.00032928  00000+0 -97302-3 0  2577
2 53418  53.1591 319.7061 0001286  74.7161 181.5317 15.34401914    16

Traccia STARLINK-4481 in tempo reale con AllMySat

Download on the App Store